Regional Weather Roundup
Issued by NWS Grand Forks, ND

Home | Current Version | Previous Version | Text Only | Print | Product List | Glossary Off
Versions: 1 2 3 4 5 6 7 8 9 10 11 12 13 14 15 16 17 18 19 20 21 22 23 24 25 26 27 28 29 30 31 32 33 34 35 36 37 38 39 40 41 42 43 44 45 46 47 48 49 50

000
ASUS43 KFGF 242110
RWRFGF
PRAIRIE TO PINES  WEATHER ROUNDUP
NATIONAL WEATHER SERVICE EASTERN NORTH DAKOTA/GRAND FORKS ND
400 PM CDT SUN SEP 24 2017

 **SATELLITE DATA USED TO AUGMENT SKY COVER AT AUTOMATED STATIONS**
 *****  WEATHER ACROSS EASTERN NORTH DAKOTA  *****

CITY           SKY/WX    TMP DP  RH WIND       PRES   REMARKS
GRAND FORKS    LGT RAIN  53  52  96 NW15      29.89R
GRAND FRKS AFB LGT RAIN  54  54 100 N14       29.93R
DEVILS LAKE    NOT AVBL
FARGO          LGT RAIN  55  54  96 NW14      29.88R
WAHPETON ARPT  CLOUDY    55  54  94 NW9       29.87F
$$

 ***** WEATHER ACROSS CENTRAL AND WESTERN NORTH DAKOTA  *****

CITY           SKY/WX    TMP DP  RH WIND       PRES   REMARKS
BISMARCK       CLOUDY    52  47  83 N15G24    30.04R
MINOT          CLOUDY    51  45  79 NW12      30.05R
JAMESTOWN      CLOUDY    51  48  89 N17G24    29.94F
MINOT AFB      LGT RAIN  50  44  81 NW10      30.04R
GARRISON         N/A     49  44  83 N12       30.05S
WILLISTON      CLOUDY    48  41  76 N7        30.11S
DICKINSON      CLOUDY    47  41  80 NW10      30.07R
HETTINGER      CLOUDY    47  42  83 NW12      30.09R
$$

 *****  OTHER AIRPORT OBSERVATIONS IN OUR AREA  *****

CITY           SKY/WX    TMP DP  RH WIND       PRES   REMARKS
WALHALLA       FAIR     N/A N/A N/A NW13      29.95R
GRAFTON AIRPOR NOT AVBL
VALLEY CITY AR NOT AVBL
CANDO          FAIR      48  48 100 N16       30.01F FOG
CAVALIER APRT  LGT RAIN  50  50 100 NW14      29.93R
GWINNER        CLOUDY    54  54 100 NW12      29.92R
SHEYENNE NWR     N/A     54  54 100 NW9       29.95
ROLLA          LGT RAIN  46  46 100 N15       30.01S
 ***** THE ABOVE OBSERVATIONS ARE NON NWS ARE NOT QUALITY
       CONTROLLED AND MAY MIS-REPORT RAIN FOR SNOW...
$$

  *****  WEATHER ACROSS NORTHERN MINNESOTA  *****

CITY           SKY/WX    TMP DP  RH WIND       PRES   REMARKS
FLAG ISLAND    LGT RAIN  57  55  94 CALM      29.80R
WARROAD        NOT AVBL
ROSEAU         RAIN      55  52  88 NW9       29.84F
HALLOCK        DRIZZLE   54  52  94 NW12      29.88S
THF RVR FALLS  LGT RAIN  56  54  93 NW13      29.85R
BAUDETTE       CLOUDY    61  61 100 N6        29.80F
WASKISH        CLOUDY    66  64  94 CALM      29.80S
CROOKSTON      RAIN      54  54 100 N17       29.86S
STEPHEN NDAWN    N/A     54  52  94 N14         N/A
GREENBUSH NDAW   N/A     54  52  94 NW8         N/A
$$
  *****  WEATHER ACROSS CENTRAL AND WEST MINNESOTA  *****

CITY           SKY/WX    TMP DP  RH WIND       PRES   REMARKS
FOSSTON        DRIZZLE   57  57 100 W6        29.84S
BEMIDJI        CLOUDY    71  65  79 SW12G17   29.80F
PARK RAPIDS    PTSUNNY   74  66  76 SW10      29.82S
ELBOW LAKE     LGT RAIN  65  64  97 NW9G16    29.86R
WADENA         PTSUNNY   72  64  78 W7        29.83R
DETROIT LAKES  LGT RAIN  61  59  94 W8G16     29.86R
MOORHEAD       RAIN      55  54  94 NW7       29.88S
FERGUS FALLS   DRIZZLE   61  61 100 NW10      29.86R
MORRIS MN      NOT AVBL
STAPLES        FAIR      70  70 100 SW7       29.83R
$$
  *****  WEATHER ELSEWHERE ACROSS MINNESOTA  *****

CITY           SKY/WX    TMP DP  RH WIND       PRES   REMARKS
DULUTH         FAIR      78  67  68 S9        29.88F
INTRNTL FALLS  FAIR      74  66  76 CALM      29.78F
ELY            FAIR      81  63  54 S10G18    29.86F
CLOQUET        LGT RAIN  81  64  57 S6        29.87F
WHEATON        LGT RAIN  63  59  88 W8        29.88S
BRAINERD       FAIR      78  69  73 S9        29.82F
HIBBING        FAIR      80  64  58 S9G18     29.83F
ALEXANDRIA     LGT RAIN  73  67  81 W14       29.85S
SAINT CLOUD    FAIR      85  66  53 S18       29.82F
MINNEAPOLIS    PTSUNNY   90  63  40 S17       29.85F HX  91
$$

  *****  WEATHER ACROSS SOUTH DAKOTA  *****

CITY           SKY/WX    TMP DP  RH WIND       PRES   REMARKS
SIOUX FALLS    PTSUNNY   70  61  73 W12       29.90S
BROOKINGS      CLOUDY    61  58  90 W13       29.91F
WATERTOWN      CLOUDY    57  56  96 W15       29.91R
HURON          LGT RAIN  56  54  93 NW9       29.95F
SISSETON         N/A     58  57  97 NW10      29.89R
ABERDEEN       CLOUDY    55  51  86 N13       29.95R
MITCHELL       LGT RAIN  57  55  93 N7        29.95S
PIERRE         CLOUDY    55  47  74 NW15      30.00R
MOBRIDGE       CLOUDY    55  48  77 N14G22    29.99R
RAPID CITY     CLOUDY    52  43  71 N18       30.06F
$$

  *****  SOME WEATHER IN NEARBY STATES *****

CITY           SKY/WX    TMP DP  RH WIND       PRES   REMARKS
GLASGOW MT     CLOUDY    53  37  54 NW6       30.11R
GREAT FALLS MT FAIR      56  27  32 CALM      30.06F
CHEYENNE WY    CLOUDY    43  41  93 E10       30.02R FOG
SCOTTSBLUFF NE CLOUDY    54  42  64 NE13      30.02S
OMAHA NE       PTSUNNY   78  70  76 N9        29.86F
DES MOINES IA  FAIR      91  62  37 SE15      29.91F HX  91
DAVENPORT IA   FAIR      88  62  41 S8        30.00F
CHICAGO IL     FAIR      92  58  31 S8        30.00F HX  91
EAU CLAIRE WI  FAIR      87  61  41 S14       29.92F
LA CROSSE WI   FAIR      93  61  34 S14       29.92F HX  93
$$

  *****  SOME NATIONAL WEATHER *****

CITY           SKY/WX    TMP DP  RH WIND       PRES   REMARKS
LA GUARDIA NY  FAIR      89  64  43 NE5       30.00F HX  90
RALEIGH NC     PTSUNNY   86  57  37 NE7       30.00F
ATLANTA GA     FAIR      84  64  50 NE6       30.02F
NEW ORLEANS LA FAIR      87  69  54 E17G29    29.88F HX  91
OKLAHOMA CITY  PTSUNNY   85  61  44 S17       29.88F
ALBUQUERQUE NM FAIR      72  23  16 S9        29.92F
SALT LAKE CITY RAIN      45  43  93 S7        30.03R FOG
LOS ANGELES CA FAIR      76  55  48 W14       29.86F
BOISE ID       FAIR      65  28  24 NW18G25   30.00F
SEATTLE WA     FAIR      68  50  52 NW8       30.14S
$$

*** WEATHER ACROSS MANITOBA...SASKATCHEWAN AND ONTARIO ***
                ***ONTARIO***

CITY           SKY/WX    TMP DP  RH WIND       PRES   REMARKS
GERALDTON      PTSUNNY   79  70  73 S9        29.88F
THUNDER BAY    PTSUNNY   72  64  78 E9        29.88F
SIOUX LOOKOUT  LGT RAIN  64  64 100 SW8       29.81R FOG
TORONTO        MOSUNNY   90  66  45 SE8       30.08F HX  92
BIG TROUT LK   LGT RAIN  46  46 100 NE8G17    30.01F
PICKLE LAKE    LGT RAIN  52  52 100 E7        29.85F FOG
DRYDEN         CLOUDY    63  63 100 SW7       29.80F
KENORA         LGT RAIN  55  55 100 N6        29.80F FOG
$$
                *** MANITOBA***

CITY           SKY/WX    TMP DP  RH WIND       PRES   REMARKS
BRANDON        RAIN      50  46  87 N12       30.02S
DAUPHIN        PTSUNNY   52  48  87 N14G20    30.04S
ISLAND LAKE    LGT RAIN  45  43  93 N9        30.06F
PILOT MOUND      N/A     48  45  87 N10         N/A
THE PAS        MOSUNNY   52  39  62 NE7       30.11F
THOMPSON       PTSUNNY   45  39  81 NE9       30.15F
WINNIPEG       LGT RAIN  50  48  93 N16G22    29.92R FOG
LYNN LAKE      MOSUNNY   50  39  66 VRB3      30.14F
CHURCHILL      PTSUNNY   43  28  56 N3        30.22F
GILLAM         CLOUDY    43  34  70 N8        30.17F
$$
                ***SASKATCHEWAN***

CITY           SKY/WX    TMP DP  RH WIND       PRES   REMARKS
ESTEVAN        CLOUDY    50  41  71 N5        30.09R
KINDERSLEY     MOSUNNY   57  34  41 VRB9G17   30.05F
LLOYDMINSTER   CLOUDY    55  37  50 S8        30.02F
PRINCE ALBERT  PTSUNNY   54  39  58 VRB2      30.10F
REGINA         PTSUNNY   54  32  43 N7        30.10R
YORKTON        CLOUDY    54  37  54 N9        30.07F
N. BATTLEFORD  MOSUNNY   59  36  41 S8        30.07F
LA RONGE       PTSUNNY   52  39  62 SE6       30.08F
SASKATOON      PTSUNNY   59  37  44 SE5       30.09S
SWIFT CURRENT    N/A     57  32  38 S7        30.06F
$$
NOTE: THESE ARE AUTOMATED STATIONS WITH LIMITED QUALITY CONTROL
      "FAIR" INDICATES FEW OR NO CLOUDS BELOW 12,000 FEET WITH NO
      SIGNIFICANT WEATHER AND/OR OBSTRUCTIONS TO VISIBILITY.
      SKY/WX - SKY CONDITION AND SIGNIFICANT WEATHER.
      TMP - AIR TEMPERATURE.    DP   - DEWPOINT TEMPERATURE.
      RH  - RELATIVE HUMIDITY.  PRES - PRESSURE.
      HX  - HEAT INDEX.         WCI  - WIND CHILL INDEX.
$




USA.gov is the U.S. government's official web portal to all federal, state and local government web resources and services.